This is the latest recevied weather packets stored in our database for station/object N2ZVN. If no packets are shown the sender has not sent any weather packets the latest 10 day(s).
| Time | Temp. | Humidity | Pressure | Rain* | Wind** | Luminosity | Snow |
|---|---|---|---|---|---|---|---|
| 1777551444 | 6.67° C | 83% | 1011.1 hPa | 0 mm | - | 218 W/m² | - |
| 1777551141 | 6.67° C | 86% | 1011 hPa | 0 mm | - | 138 W/m² | - |
| 1777550839 | 6.67° C | 86% | 1011.2 hPa | 0 mm | - | 100 W/m² | - |
| 1777550535 | 6.67° C | 85% | 1011.2 hPa | 0 mm | - | 83 W/m² | - |
| 1777550231 | 6.67° C | 85% | 1011.1 hPa | 0 mm | - | 84 W/m² | - |
| 1777549928 | 6.67° C | 85% | 1011.1 hPa | 0 mm | - | 74 W/m² | - |
| 1777549623 | 6.67° C | 85% | 1010.9 hPa | 0 mm | - | 58 W/m² | - |
| 1777549319 | 6.67° C | 84% | 1011 hPa | 0 mm | - | 61 W/m² | - |
| 1777549017 | 7.22° C | 83% | 1010.8 hPa | 0 mm | - | 74 W/m² | - |
| 1777548713 | 7.22° C | 82% | 1010.8 hPa | 0 mm | - | 150 W/m² | - |
| 1777548410 | 6.67° C | 85% | 1010.9 hPa | 0 mm | - | 132 W/m² | - |
| 1777548107 | 6.11° C | 88% | 1010.7 hPa | 0 mm | - | 114 W/m² | - |
| 1777547802 | 6.11° C | 88% | 1010.9 hPa | 0 mm | - | 62 W/m² | - |
| 1777547499 | 5.56° C | 88% | 1010.9 hPa | 0 mm | - | 53 W/m² | - |
| 1777547197 | 5.56° C | 89% | 1010.9 hPa | 0 mm | - | 34 W/m² | - |
| 1777546894 | 5.56° C | 88% | 1010.8 hPa | 0 mm | - | 29 W/m² | - |
| 1777546591 | 5.56° C | 89% | 1010.7 hPa | 0 mm | - | 22 W/m² | - |
| 1777546287 | 5.56° C | 89% | 1010.7 hPa | 0 mm | - | 21 W/m² | - |
| 1777545985 | 5.56° C | 89% | 1010.5 hPa | 0 mm | - | 25 W/m² | - |
| 1777545681 | 5° C | 90% | 1010.5 hPa | 0 mm | - | 21 W/m² | - |
| 1777545378 | 5° C | 90% | 1010.4 hPa | 0 mm | - | 13 W/m² | - |
| 1777545075 | 5° C | 90% | 1010.2 hPa | 0 mm | - | 11 W/m² | - |
| 1777544772 | 5° C | 90% | 1010.2 hPa | 0 mm | - | 9 W/m² | - |
| 1777544467 | 5° C | 90% | 1010.1 hPa | 0 mm | - | 6 W/m² | - |
| 1777544164 | 5° C | 89% | 1010 hPa | 0 mm | - | 5 W/m² | - |
* Rain latest hour (hover to see other rain measurements)
** Current wind speed in m/s (hover to see current wind gust speed)